CAPE
0 0 0 0 0 0 0 0 0 0 0 0 0 0 0 0 0 0 0 0 0 0 0 0 0 0 0 0 0 0 0 0 0 0 0 0 0 0 0 0 0 1 2 2
0 0 0 0 0 0 0 0 0 0 0 0 0 0 0 0 0 0 0 0 0 0 0 0 0 0 0 0 0 0 0 0 0 0 0 0 0 0 0 0 0 0 0 0
0 0 0 0 0 0 0 0 0 0 0 0 0 0 0 0 0 0 0 0 0 0 0 0 0 0 0 0 0 0 0 0 0 0 0 0 0 0 0 0 0 0 0 0
0 0 0 0 0 0 0 0 0 0 0 0 0 0 0 0 0 0 0 0 0 0 0 0 0 0 0 0 0 0 0 0 0 0 0 0 0 0 0 0 1 1 0 0
0 0 0 0 0 0 0 0 0 0 0 0 0 0 0 0 0 0 0 0 0 0 0 0 0 0 0 0 0 0 0 0 0 0 0 0 0 0 0 0 1 0 0 0
0 0 0 0 0 0 0 0 0 0 0 0 0 0 0 0 0 0 0 0 0 0 0 0 0 0 0 0 0 0 0 0 0 0 0 0 0 0 0 0 2 0 0 0
0 0 0 0 0 0 0 0 0 0 0 0 0 0 0 0 0 0 0 0 0 0 0 0 0 0 0 0 0 0 0 0 0 0 0 0 0 0 0 0 0 0 0 0
0 0 0 0 0 0 0 0 0 0 0 0 0 0 0 0 0 0 0 0 0 0 0 0 0 0 0 0 0 0 0 0 0 0 0 0 0 0 0 0 0 0 0 0
0 0 0 0 0 0 0 0 0 0 0 0 0 0 0 0 0 0 0 0 0 0 0 0 0 0 0 0 0 0 0 0 0 0 0 0 0 0 0 0 0 0 0 0
0 0 0 0 0 0 0 0 0 0 0 0 0 0 0 0 0 0 0 0 0 0 0 0 0 0 0 0 0 0 0 0 0 0 0 0 0 0 0 0 0 0 0 0
0 0 0 0 0 0 0 0 0 0 0 0 0 0 0 0 0 0 0 0 0 0 0 0 0 0 0 0 0 0 0 0 0 0 0 0 0 0 0 0 0 1 1 3
0 0 0 0 0 0 0 0 0 0 0 0 0 0 0 0 0 0 0 0 0 0 0 0 0 0 0 0 0 0 0 0 0 0 0 0 0 0 0 0 0 0 2 3
0 0 0 0 0 0 0 0 0 0 0 0 0 0 0 0 0 0 0 0 0 0 0 0 0 0 0 0 0 0 0 1 0 0 1 1 1 1 2 0 0 0 0 0
0 0 0 0 0 0 0 0 0 0 0 0 0 0 0 0 0 0 0 0 0 0 0 0 0 0 0 0 0 0 1 0 0 1 2 1 1 1 1 1 1 0 0 0
0 0 0 0 0 0 0 0 0 0 0 0 0 0 0 0 0 0 0 0 0 0 0 0 0 0 0 0 0 0 0 0 0 0 1 1 1 1 1 1 1 0 0 0
0 0 0 0 0 0 0 0 0 1 0 0 0 0 0 0 0 0 0 0 0 0 0 0 0 0 0 0 0 0 0 0 2 1 0 2 1 0 0 0 2 2 3 3
0 0 1 3 0 0 0 0 0 0 0 0 0 0 0 0 0 0 0 0 0 0 0 0 0 0 0 0 0 0 0 0 0 1 1 1 1 1 0 0 1 1 2 1
0 0 0 0 0 0 0 0 0 0 0 0 0 0 0 0 0 0 0 0 0 0 0 0 0 0 0 0 0 0 0 0 0 0 1 1 2 1 0 0 0 0 0 0
0 0 0 0 0 0 0 0 0 0 0 0 0 0 0 0 0 0 0 0 0 0 0 0 0 0 0 0 0 0 2 2 1 0 0 0 2 1 0 0 0 0 0 0
0 0 0 0 0 0 0 0 0 0 0 0 0 0 0 0 0 0 0 0 0 0 0 0 0 0 0 0 0 0 1 1 0 1 1 2 2 2 2 0 0 0 1 1
0 0 0 0 0 0 0 0 0 0 0 0 0 0 0 0 0 0 0 0 0 0 0 0 0 0 0 0 0 0 0 0 0 1 0 0 1 1 1 2 1 1 1 2
0 0 0 0 0 0 0 0 0 0 0 0 0 0 0 0 0 0 0 0 0 0 0 0 0 0 0 0 0 0 0 0 0 0 0 1 0 1 1 1 1 1 0 1
0 0 0 0 0 0 0 0 0 0 0 0 0 0 0 0 0 0 0 0 0 0 0 0 0 0 0 0 0 1 0 1 1 2 2 2 2 3 2 0 0 0 0 0
0 0 0 0 0 0 0 0 0 0 0 0 0 0 0 0 0 1 0 0 0 0 0 0 0 0 0 0 0 1 1 0 0 0 0 0 0 2 8 3 0 1 0 0
0 0 0 0 0 0 0 0 0 0 0 0 0 0 0 4 2 1 2 0 0 0 0 0 0 0 0 0 0 0 0 0 1 2 1 1 0 0 0 1 4 2 1 0
0 0 0 0 0 0 0 0 0 0 0 0 0 0 1 0 0 0 4 7 3 2 0 0 0 0 0 0 0 0 0 0 0 0 0 1 1 0 0 0 0 1 0 1
0 0 0 0 0 0 0 0 0 0 0 0 0 0 0 0 0 0 0 1 3 0 0 0 0 0 0 0 0 0 0 0 0 0 0 1 1 1 1 1 2 1 2 0
CIN
0 0 0 0 0 0 0 0 0 0 0 0 0 0 0 0 0 0 0 0 0 0 0 0 0 0 0 0 0 0 0 0 0 0 0 0 0 0 0 0 0 0 0 0
0 0 0 0 0 0 0 0 0 0 0 0 0 0 0 0 0 0 0 0 0 0 0 0 0 0 0 0 0 0 0 0 0 0 0 0 0 0 0 0 0 0 0 0
0 0 0 0 0 0 0 0 0 0 0 0 0 0 0 0 0 0 0 0 0 0 0 0 0 0 0 0 0 0 0 0 0 0 0 0 0 0 0 0 0 0 0 0
0 0 0 0 0 0 0 0 0 0 0 0 0 0 0 0 0 0 0 0 0 0 0 0 0 0 0 0 0 0 0 0 0 0 0 0 0 0 0 0 0 0 0 0
0 0 0 0 0 0 0 0 0 0 0 0 0 0 0 0 0 0 0 0 0 0 0 0 0 0 0 0 0 0 0 0 0 0 0 0 0 0 0 0 0 0 0 0
0 0 0 0 0 0 0 0 0 0 0 0 0 0 0 0 0 0 0 0 0 0 0 0 0 0 0 0 0 0 0 0 0 0 0 0 0 0 0 0 0 0 0 0
0 0 0 0 0 0 0 0 0 0 0 0 0 0 0 0 0 0 0 0 0 0 0 0 0 0 0 0 0 0 0 0 0 0 0 0 0 0 0 0 0 0 0 0
0 0 0 0 0 0 0 0 0 0 0 0 0 0 0 0 0 0 0 0 0 0 0 0 0 0 0 0 0 0 0 0 0 0 0 0 0 0 0 0 0 0 0 0
0 0 0 0 0 0 0 0 0 0 0 0 0 0 0 0 0 0 0 0 0 0 0 0 0 0 0 0 0 0 0 0 0 0 0 0 0 0 0 0 0 0 0 0
0 0 0 0 0 0 0 0 0 0 0 0 0 0 0 0 0 0 0 0 0 0 0 0 0 0 0 0 0 0 0 0 0 0 0 0 0 0 0 0 0 0 -1 -1
0 0 0 0 0 0 0 0 0 0 0 0 0 0 0 0 0 0 0 0 0 0 0 0 0 0 0 0 0 0 0 0 0 0 0 0 0 0 0 0 0 -1 -1 -1
0 0 0 0 0 0 0 0 0 0 0 0 0 0 0 0 0 0 0 0 0 0 0 0 0 0 0 0 0 0 0 0 0 0 0 0 0 0 0 0 0 0 -7 -5
0 0 0 0 0 0 0 0 0 0 0 0 0 0 0 0 0 0 0 0 0 0 0 0 0 0 0 0 0 0 0 0 0 0 0 0 0 0 0 0 0 0 0 0
0 0 0 0 0 0 0 0 0 0 0 0 0 0 0 0 0 0 0 0 0 0 0 0 0 0 0 0 0 0 0 0 0 0 0 0 0 0 0 0 0 0 0 0
0 0 0 0 0 0 0 0 0 0 0 0 0 0 0 0 0 0 0 0 0 0 0 0 0 0 0 0 0 0 0 0 0 0 0 0 0 0 0 0 0 0 0 0
0 0 0 0 0 0 0 0 0 0 0 0 0 0 0 0 0 0 0 0 0 0 0 0 0 0 0 0 0 0 0 0 -14 -7 0 0 0 0 0 0 0 0 0 -1
0 0 0 0 0 0 0 0 0 0 0 0 0 0 0 0 0 0 0 0 0 0 0 0 0 0 0 0 0 0 0 0 0 -5 0 0 0 0 0 0 0 0 -1 0
0 0 0 0 0 0 0 0 0 0 0 0 0 0 0 0 0 0 0 0 0 0 0 0 0 0 0 0 0 0 0 0 0 0 0 0 0 0 0 0 0 0 0 0
0 0 0 0 0 0 0 0 0 0 0 0 0 0 0 0 0 0 0 0 0 0 0 0 0 0 0 0 0 0 0 0 0 0 0 0 0 0 0 0 0 0 0 0
0 0 0 0 0 0 0 0 0 0 0 0 0 0 0 0 0 0 0 0 0 0 0 0 0 0 0 0 0 0 0 0 0 0 0 0 0 0 0 0 0 0 0 0
0 0 0 0 0 0 0 0 0 0 0 0 0 0 0 0 0 0 0 0 0 0 0 0 0 0 0 0 0 0 -1 -2 -1 0 0 0 0 0 0 0 0 0 0 0
0 0 0 0 0 0 0 0 0 0 0 0 0 0 0 0 0 0 0 0 0 0 0 0 0 0 0 0 -1 -3 0 0 0 0 0 0 0 0 0 0 0 0 0 0
0 0 0 0 0 0 0 0 0 0 0 0 0 0 0 0 0 0 0 0 0 0 0 0 0 0 0 0 0 0 0 -1 -1 -1 -1 -1 -2 -2 -2 -2 0 0 0 0
0 0 0 0 0 0 0 0 0 0 0 0 0 0 0 0 0 0 0 0 0 0 0 0 0 0 0 0 0 0 0 0 0 0 0 0 0 -3 0 -2 -5 0 0 0
0 0 0 0 0 0 0 0 0 0 0 0 0 0 0 0 -2 -3 -3 0 0 0 0 0 0 0 0 0 0 0 0 0 0 0 0 0 0 0 0 0 0 0 0 0
0 0 0 0 0 0 0 0 0 0 0 0 0 0 0 0 0 0 0 0 -3 -5 0 0 0 0 0 0 0 0 0 0 0 0 0 0 0 0 0 0 0 0 0 0
0 0 0 0 0 0 0 0 0 0 0 0 0 0 0 0 0 0 0 0 0 0 0 0 0 0 0 0 0 0 0 0 0 0 0 0 0 0 0 0 0 0 0 0
Wind_Speed
21 20 19 15 5 1 2 7 9 14 10 18 15 13 11 10 8 7 7 7 8 9 11 11 15 19 18 19 21 24 27 28 28 29 31 35 39 40 39 38 36 34 32 29
21 21 20 8 4 6 5 8 9 12 12 19 20 18 12 10 8 8 8 8 9 10 12 15 17 17 18 21 24 26 28 28 28 30 33 37 39 38 37 36 34 31 30 27
22 19 18 7 7 8 11 13 13 14 17 19 18 15 13 11 9 9 9 9 10 11 13 16 16 17 20 23 25 27 28 28 29 32 36 38 37 37 37 34 32 30 28 21
19 16 19 15 16 16 11 13 14 20 21 18 19 19 17 13 10 10 10 11 11 13 15 14 15 18 21 24 27 28 28 28 31 34 36 36 37 37 35 32 29 27 23 19
19 19 26 22 17 18 20 25 19 17 18 19 20 20 20 14 13 11 11 12 13 14 13 14 17 20 23 26 28 28 30 31 34 34 35 36 37 36 34 30 27 24 19 18
19 25 28 20 22 19 19 30 24 15 15 16 16 24 25 15 13 12 13 13 13 13 14 15 19 22 25 28 28 30 31 33 33 32 33 35 35 35 32 28 25 21 18 18
20 24 25 21 21 17 26 27 21 15 13 13 20 23 24 17 14 13 13 13 12 14 17 18 21 23 27 28 29 30 31 33 34 32 31 32 33 32 31 27 23 20 18 19
20 24 30 16 16 21 22 23 19 15 16 18 20 21 21 17 14 13 12 13 15 17 18 20 23 26 27 29 30 30 33 34 34 30 30 31 31 30 28 25 22 19 19 19
16 22 20 17 21 20 22 23 22 21 22 21 21 20 17 15 13 13 13 17 15 17 20 23 25 26 29 30 31 33 33 33 32 31 31 30 30 29 27 22 20 19 20 20
24 22 22 21 22 23 23 24 24 23 23 21 21 17 16 14 13 15 18 14 15 18 22 25 26 28 29 31 32 34 34 32 32 32 32 29 27 25 24 21 19 19 19 19
24 27 26 23 23 25 25 24 24 24 23 21 17 16 13 13 15 14 14 14 17 21 23 26 28 29 31 32 33 35 33 31 30 31 31 29 24 23 21 18 17 18 19 17
31 29 28 29 29 28 27 26 25 23 23 20 15 14 13 14 12 15 14 16 19 21 25 27 29 31 33 33 33 33 32 30 30 30 29 27 24 22 17 15 14 13 13 13
29 28 28 29 28 27 28 26 23 20 17 16 15 13 13 14 14 13 15 18 21 24 26 28 30 33 33 32 31 32 32 31 30 28 27 26 23 20 19 16 14 13 11 11
28 27 28 27 29 28 24 22 20 19 18 17 15 15 15 14 14 16 19 22 23 24 26 29 31 33 32 31 31 31 32 30 29 27 26 23 20 18 16 15 16 18 14 11
31 27 27 26 26 24 21 19 19 19 18 18 17 16 16 17 17 20 21 22 23 26 28 29 31 32 31 31 31 31 30 30 27 27 26 20 17 17 16 14 13 16 15 13
27 26 24 24 24 23 21 19 19 18 18 17 18 17 18 19 21 23 23 23 25 27 27 29 32 32 31 32 31 31 30 28 26 27 25 20 14 15 16 15 14 15 16 12
24 26 24 24 23 22 21 20 19 18 18 20 21 21 21 23 24 26 26 26 27 28 29 31 32 32 32 30 30 30 30 29 28 26 23 19 13 14 14 15 15 16 16 13
22 21 20 20 20 20 20 20 20 22 23 23 22 23 24 26 28 29 30 30 31 31 31 31 31 31 31 29 29 28 27 28 28 26 23 19 14 13 14 15 15 14 14 13
21 21 20 20 20 21 22 23 23 24 24 23 24 25 26 28 31 32 32 33 33 35 35 31 29 30 31 30 30 28 27 27 25 24 22 20 16 13 14 15 15 15 14 15
22 23 23 24 24 25 26 25 25 25 25 25 27 29 32 33 33 34 34 36 34 34 34 33 31 30 31 31 30 29 29 28 26 24 22 21 18 15 14 14 14 15 15 15
24 24 25 26 26 26 26 27 27 29 29 30 31 32 34 35 36 36 37 40 37 34 34 34 31 30 29 30 29 29 29 27 26 23 20 20 19 18 17 17 16 16 16 15
24 25 26 27 27 28 28 28 28 30 32 34 35 37 39 40 39 38 35 37 38 37 37 33 30 29 29 30 29 30 29 27 26 23 21 19 18 19 20 20 20 19 17 17
24 25 26 27 27 27 28 31 34 36 38 39 40 41 42 42 41 44 47 40 37 39 37 33 30 28 28 28 28 30 30 27 25 23 21 21 21 21 22 23 25 24 20 18
23 25 26 27 28 31 35 37 39 39 40 40 39 39 41 45 44 38 38 41 40 38 36 32 31 27 27 27 29 31 30 28 27 26 26 27 27 27 24 23 27 27 25 22
24 26 28 31 33 35 36 39 40 41 43 43 43 42 42 41 40 42 42 41 40 37 33 32 27 25 25 27 29 29 28 27 27 28 28 29 29 30 30 31 30 28 27 25
26 28 29 31 33 35 38 40 43 42 46 48 45 44 44 44 43 43 42 40 37 32 30 26 24 25 25 25 27 27 27 27 27 28 29 30 31 32 33 34 34 30 26 25
26 29 31 33 35 37 40 42 44 45 45 46 47 45 45 45 43 43 43 41 39 31 27 25 24 25 24 24 26 26 26 27 28 29 29 30 31 33 35 35 35 34 29 23
Wind_Direction
276 282 287 303 340 171 245 327 327 334 329 335 339 336 334 330 323 315 313 318 325 330 336 342 341 341 345 346 345 344 343 342 341 343 343 343 342 343 345 346 348 349 350 351
281 288 296 316 320 317 290 312 293 316 300 325 329 334 330 322 315 307 308 312 320 327 333 336 339 343 345 344 344 344 342 341 342 342 342 342 343 345 346 347 349 351 351 354
290 302 308 301 242 253 303 308 307 302 315 325 327 329 326 319 309 305 306 310 317 324 331 336 341 344 343 343 343 342 341 342 342 342 341 343 344 344 344 346 348 348 351 357
307 318 306 322 325 325 303 301 299 312 319 322 327 329 330 326 315 310 310 314 318 325 332 338 342 343 343 342 342 342 343 342 342 342 342 343 344 344 344 345 346 348 352 357
311 312 311 319 326 322 318 318 318 307 315 322 328 331 328 324 320 313 313 317 322 329 335 340 343 343 341 341 343 343 341 341 341 342 343 344 345 346 346 346 348 350 354 355
315 311 311 328 330 332 332 318 328 324 321 324 332 325 327 325 321 320 321 323 326 335 341 341 341 341 341 341 342 341 341 341 341 342 343 344 346 346 348 349 348 351 354 354
315 315 320 328 331 341 324 328 341 344 341 334 325 326 332 335 330 331 330 331 339 341 338 340 342 343 340 341 341 342 343 342 342 342 343 345 346 348 348 349 352 354 353 352
325 321 319 347 348 332 335 335 335 335 333 325 325 330 332 335 336 337 337 340 342 337 340 343 343 341 339 339 341 342 341 342 343 344 344 344 345 346 348 350 351 353 351 350
323 325 332 332 330 333 332 331 330 324 325 324 325 325 330 333 337 341 341 337 339 338 340 341 341 342 339 339 340 340 340 341 344 345 344 345 345 346 347 350 351 351 350 350
324 329 326 325 324 324 322 320 322 322 324 322 319 321 326 333 338 337 339 339 341 339 337 337 340 341 340 340 340 340 340 341 343 344 344 344 345 347 349 350 350 349 349 350
320 323 326 331 330 329 327 326 325 324 323 322 322 322 324 329 332 339 344 341 338 338 339 339 340 340 340 340 340 340 341 342 343 344 345 345 345 347 348 350 350 350 349 350
318 326 325 326 330 330 330 328 328 327 330 333 333 334 337 338 347 343 341 341 340 340 339 339 339 340 339 341 341 342 342 343 343 344 345 346 346 346 350 351 352 349 348 349
321 326 325 326 329 330 329 331 334 336 339 343 347 351 350 344 344 348 341 338 338 337 338 339 339 338 341 343 344 344 343 343 343 344 345 346 347 347 347 352 354 354 352 351
331 331 329 335 331 333 337 341 346 350 352 353 352 355 353 350 345 339 337 337 337 338 339 339 340 341 344 345 345 345 344 344 343 344 344 343 348 349 348 346 348 351 359 355
332 335 333 337 340 343 348 351 352 353 354 357 356 352 348 342 338 335 336 337 337 335 336 339 341 341 343 345 346 345 344 344 344 344 345 343 346 349 348 345 343 346 351 355
334 340 344 344 346 348 351 355 354 355 359 356 351 345 342 340 337 336 336 335 334 335 337 338 337 339 341 342 342 344 344 343 342 342 344 344 343 347 350 349 346 343 342 344
337 338 344 345 350 354 356 360 1 358 354 347 342 341 339 337 334 332 331 332 331 331 332 334 335 337 338 340 341 342 344 345 343 341 342 342 339 342 346 347 347 347 346 348
357 0 3 3 2 1 359 358 353 348 344 342 342 341 337 334 332 331 330 330 329 329 329 329 332 336 338 338 338 338 340 341 343 343 342 341 336 333 336 339 341 344 348 351
13 12 10 8 4 359 353 348 344 343 342 342 341 338 337 334 332 331 330 330 329 327 327 330 330 332 334 336 336 336 335 335 336 339 341 339 335 328 327 327 328 330 334 337
357 356 355 352 350 348 346 347 347 346 344 342 339 336 334 333 332 332 331 328 329 329 330 329 328 328 332 334 336 336 335 334 333 335 337 338 335 330 322 321 320 321 323 323
351 351 351 350 349 350 349 349 347 344 342 341 338 335 334 332 331 331 330 328 331 332 331 330 330 330 332 334 335 334 334 333 332 333 333 335 336 334 331 329 323 318 316 315
350 350 350 351 351 351 352 352 351 348 344 340 338 335 333 331 331 329 328 326 329 331 331 330 330 329 330 331 334 334 333 332 332 333 335 335 334 334 333 332 330 328 324 321
351 351 351 351 352 352 352 348 344 342 339 337 336 334 332 331 330 328 325 330 329 328 328 327 328 328 330 332 334 335 334 333 332 333 335 335 333 332 332 331 329 329 327 325
353 354 353 351 349 345 340 340 340 340 339 339 339 338 336 332 330 333 330 329 328 328 328 328 329 330 332 334 335 336 335 334 333 333 332 330 330 330 329 329 330 328 329 328
350 349 347 345 342 340 341 340 340 339 339 338 337 337 336 334 330 329 329 328 328 328 328 330 331 333 335 337 338 339 338 338 338 336 336 334 332 330 327 325 327 328 329 329
347 345 345 345 343 342 341 341 338 339 338 335 337 336 335 334 333 331 330 329 328 328 329 332 334 336 337 339 342 342 342 342 341 340 338 336 334 332 329 327 325 327 329 331
346 345 343 341 342 341 341 340 339 338 338 337 335 337 336 336 335 334 333 332 332 333 335 336 337 339 341 342 343 344 343 342 340 339 338 337 335 334 332 332 331 330 332 335